| time (UTC) | temp C | wind direction | speed KPH | gust KPH | rain 1hr cm | rain 24hr cm | rain mn cm | humidity % | barometer mb |
| 20260507122426 | 16 | 275 | 1.6 | 3.2 | 0.00 | 0.00 | 0.00 | 68 | 1011.4 |
| 20260507121403 | 17 | 285 | 1.6 | 3.2 | 0.00 | 0.00 | 0.00 | 67 | 1011.3 |
| 20260507120354 | 15 | 248 | 0.0 | 1.6 | 0.00 | 0.00 | 0.00 | 71 | 1011.4 |
| 20260507114322 | 16 | 263 | 0.0 | 3.2 | 0.00 | 0.00 | 0.00 | 73 | 1011.4 |
| 20260507113258 | 16 | 256 | 0.0 | 1.6 | 0.00 | 0.00 | 0.00 | 69 | 1011.5 |
| 20260507112233 | 16 | 264 | 0.0 | 1.6 | 0.00 | 0.00 | 0.00 | 73 | 1011.7 |
| 20260507111209 | 16 | 228 | 0.0 | 1.6 | 0.00 | 0.00 | 0.00 | 70 | 1011.8 |
| 20260507110201 | 16 | 243 | 0.0 | 1.6 | 0.00 | 0.00 | 0.00 | 70 | 1011.8 |
| 20260507105153 | 16 | 180 | 3.2 | 4.8 | 0.00 | 0.00 | 0.00 | 67 | 1012.1 |
| 20260507104145 | 15 | 122 | 1.6 | 4.8 | 0.00 | 0.00 | 0.00 | 71 | 1011.9 |
| 20260507103137 | 15 | 263 | 1.6 | 3.2 | 0.00 | 0.00 | 0.00 | 72 | 1012.0 |
| 20260507102130 | 13 | 245 | 3.2 | 4.8 | 0.00 | 0.00 | 0.00 | 74 | 1012.2 |
| 20260507101121 | 15 | 264 | 0.0 | 3.2 | 0.00 | 0.00 | 0.00 | 72 | 1011.9 |
| 20260507100058 | 14 | 256 | 0.0 | 1.6 | 0.00 | 0.00 | 0.00 | 75 | 1012.0 |
| 20260507095039 | 15 | 254 | 0.0 | 1.6 | 0.00 | 0.00 | 0.00 | 74 | 1011.7 |
| 20260507094025 | 14 | 251 | 3.2 | 6.4 | 0.00 | 0.00 | 0.00 | 72 | 1011.7 |
| 20260507093002 | 15 | 248 | 0.0 | 1.6 | 0.00 | 0.00 | 0.00 | 75 | 1011.7 |
| 20260507091938 | 15 | 235 | 3.2 | 8.0 | 0.00 | 0.00 | 0.00 | 75 | 1011.6 |
| 20260507090914 | 14 | 203 | 1.6 | 3.2 | 0.00 | 0.00 | 0.00 | 75 | 1011.7 |
| 20260507085906 | 13 | 242 | 3.2 | 4.8 | 0.00 | 0.00 | 0.00 | 76 | 1011.4 |
| 20260507084842 | 13 | 209 | 6.4 | 8.0 | 0.00 | 0.00 | 0.00 | 76 | 1011.5 |
| 20260507083833 | 13 | 231 | 4.8 | 6.4 | 0.00 | 0.00 | 0.00 | 76 | 1011.4 |
| 20260507082825 | 12 | 254 | 8.0 | 9.7 | 0.00 | 0.00 | 0.00 | 78 | 1011.4 |
| 20260507081802 | 12 | 244 | 4.8 | 4.8 | 0.00 | 0.00 | 0.00 | 77 | 1011.4 |
| 20260507080753 | 13 | 248 | 6.4 | 8.0 | 0.00 | 0.00 | 0.00 | 75 | 1011.4 |
| 20260507075740 | 12 | 253 | 0.0 | 0.0 | 0.00 | 0.00 | 0.00 | 76 | 1011.6 |
| 20260507074722 | 13 | 244 | 0.0 | 0.0 | 0.00 | 0.00 | 0.00 | 73 | 1011.7 |
| 20260507073658 | 12 | 248 | 0.0 | 1.6 | 0.00 | 0.00 | 0.00 | 69 | 1011.6 |
| 20260507072640 | 12 | 278 | 0.0 | 1.6 | 0.00 | 0.00 | 0.00 | 71 | 1011.7 |
| 20260507071626 | 11 | 282 | 0.0 | 0.0 | 0.00 | 0.00 | 0.00 | 77 | 1011.3 |
| 20260507070602 | 9 | 283 | 0.0 | 0.0 | 0.00 | 0.00 | 0.00 | 83 | 1011.5 |
| 20260507065539 | 8 | 285 | 0.0 | 0.0 | 0.00 | 0.00 | 0.00 | 82 | 1011.6 |
| 20260507064530 | 8 | 286 | 0.0 | 0.0 | 0.00 | 0.00 | 0.00 | 81 | 1011.5 |
| 20260507063506 | 8 | 286 | 0.0 | 0.0 | 0.00 | 0.00 | 0.00 | 80 | 1011.5 |
| 20260507062443 | 8 | 285 | 0.0 | 0.0 | 0.00 | 0.00 | 0.00 | 81 | 1011.6 |
| 20260507061418 | 8 | 295 | 1.6 | 1.6 | 0.00 | 0.00 | 0.00 | 77 | 1011.5 |
| 20260507060355 | 7 | 308 | 0.0 | 0.0 | 0.00 | 0.00 | 0.00 | 84 | 1011.4 |
| 20260507055340 | 6 | 328 | 0.0 | 1.6 | 0.00 | 0.00 | 0.00 | 89 | 1011.4 |
| 20260507054323 | 5 | 313 | 0.0 | 0.0 | 0.00 | 0.00 | 0.00 | 95 | 1011.2 |
| 20260507053258 | 5 | 309 | 0.0 | 0.0 | 0.00 | 0.00 | 0.00 | 96 | 1011.1 |
| 20260507052240 | 5 | 309 | 0.0 | 0.0 | 0.00 | 0.00 | 0.00 | 96 | 1011.2 |
| 20260507051225 | 5 | 311 | 0.0 | 0.0 | 0.00 | 0.00 | 0.00 | 96 | 1011.0 |
| 20260507050202 | 4 | 297 | 0.0 | 0.0 | 0.00 | 0.00 | 0.00 | 98 | 1010.7 |
| 20260507045139 | 4 | 302 | 0.0 | 0.0 | 0.00 | 0.00 | 0.00 | 98 | 1010.7 |
| 20260507044114 | 4 | 302 | 0.0 | 0.0 | 0.00 | 0.00 | 0.00 | 97 | 1010.7 |
| 20260507043050 | 4 | 301 | 0.0 | 0.0 | 0.00 | 0.00 | 0.00 | 97 | 1010.5 |
| 20260507042040 | 4 | 302 | 0.0 | 0.0 | 0.00 | 0.00 | 0.00 | 96 | 1010.6 |
| 20260507041018 | 5 | 302 | 3.2 | 3.2 | 0.00 | 0.00 | 0.00 | 96 | 1010.2 |
| 20260507035954 | 5 | 302 | 0.0 | 0.0 | 0.00 | 0.00 | 0.00 | 97 | 1010.2 |
| 20260507034940 | 5 | 302 | 0.0 | 0.0 | 0.00 | 0.00 | 0.00 | 98 | 1010.3 |
| 20260507033922 | 5 | 302 | 0.0 | 0.0 | 0.00 | 0.00 | 0.00 | 97 | 1010.4 |
| 20260507032858 | 5 | 302 | 0.0 | 0.0 | 0.00 | 0.00 | 0.00 | 97 | 1010.3 |
| 20260507031839 | 5 | 302 | 0.0 | 0.0 | 0.00 | 0.00 | 0.00 | 97 | 1010.2 |
| 20260507030826 | 5 | 302 | 0.0 | 0.0 | 0.00 | 0.00 | 0.00 | 97 | 1010.5 |
| 20260507025802 | 5 | 302 | 0.0 | 0.0 | 0.00 | 0.00 | 0.00 | 97 | 1010.4 |
| 20260507024738 | 5 | 296 | 0.0 | 0.0 | 0.00 | 0.00 | 0.00 | 97 | 1010.1 |
| 20260507023714 | 5 | 309 | 0.0 | 0.0 | 0.00 | 0.00 | 0.00 | 97 | 1010.1 |
| 20260507022650 | 5 | 308 | 0.0 | 0.0 | 0.00 | 0.00 | 0.00 | 98 | 1010.1 |
| 20260507021640 | 5 | 309 | 0.0 | 0.0 | 0.00 | 0.00 | 0.00 | 98 | 1010.0 |
| 20260507020617 | 5 | 310 | 0.0 | 0.0 | 0.00 | 0.00 | 0.00 | 98 | 1010.0 |
| 20260507015554 | 5 | 309 | 0.0 | 0.0 | 0.00 | 0.00 | 0.00 | 97 | 1009.9 |
| 20260507014540 | 5 | 309 | 0.0 | 0.0 | 0.00 | 0.00 | 0.00 | 97 | 1010.0 |
| 20260507013522 | 6 | 312 | 0.0 | 0.0 | 0.00 | 0.00 | 0.00 | 97 | 1010.0 |
| 20260507012459 | 5 | 316 | 0.0 | 0.0 | 0.00 | 0.00 | 0.00 | 97 | 1010.0 |
| 20260507011433 | 6 | 289 | 1.6 | 3.2 | 0.00 | 0.00 | 0.00 | 97 | 1009.8 |
| 20260507010410 | 6 | 313 | 0.0 | 0.0 | 0.00 | 0.00 | 0.00 | 97 | 1010.1 |
| 20260507005346 | 6 | 334 | 1.6 | 3.2 | 0.00 | 0.00 | 0.00 | 99 | 1010.0 |
| 20260507004343 | 6 | 302 | 0.0 | 0.0 | 0.00 | 0.00 | 0.00 | 99 | 1010.1 |
| 20260507003314 | 6 | 288 | 0.0 | 0.0 | 0.00 | 0.00 | 0.00 | 99 | 1010.0 |
| 20260507002250 | 6 | 288 | 0.0 | 0.0 | 0.00 | 0.00 | 0.00 | 99 | 1010.0 |
| 20260507001241 | 7 | 289 | 0.0 | 0.0 | 0.00 | 0.00 | 0.00 | 98 | 1009.8 |
| 20260507000219 | 7 | 289 | 0.0 | 0.0 | 0.00 | 0.00 | 0.00 | 98 | 1009.7 |
| 20260506235154 | 7 | 289 | 0.0 | 0.0 | 0.00 | 0.00 | 0.00 | 98 | 1009.6 |
| 20260506234139 | 7 | 287 | 0.0 | 0.0 | 0.00 | 0.00 | 0.00 | 98 | 1009.7 |
| 20260506233122 | 7 | 286 | 0.0 | 0.0 | 0.00 | 0.00 | 0.00 | 98 | 1010.1 |
| 20260506232057 | 7 | 288 | 0.0 | 0.0 | 0.00 | 0.00 | 0.00 | 98 | 1009.8 |
| 20260506231039 | 7 | 289 | 0.0 | 0.0 | 0.00 | 0.00 | 0.00 | 98 | 1009.7 |
| 20260506230026 | 7 | 289 | 0.0 | 0.0 | 0.00 | 0.00 | 0.00 | 98 | 1009.7 |
| 20260506225002 | 7 | 290 | 0.0 | 0.0 | 0.00 | 0.00 | 0.51 | 98 | 1009.6 |
| 20260506223938 | 7 | 289 | 0.0 | 0.0 | 0.00 | 0.00 | 0.51 | 97 | 1009.4 |
| 20260506222914 | 7 | 289 | 0.0 | 0.0 | 0.00 | 0.00 | 0.51 | 97 | 1009.5 |
| 20260506221850 | 8 | 289 | 0.0 | 0.0 | 0.00 | 0.00 | 0.51 | 96 | 1009.5 |
| 20260506220839 | 8 | 289 | 0.0 | 0.0 | 0.00 | 0.00 | 0.51 | 96 | 1009.2 |
| 20260506215818 | 8 | 292 | 0.0 | 0.0 | 0.00 | 0.00 | 0.51 | 95 | 1009.1 |
| 20260506214755 | 8 | 290 | 1.6 | 3.2 | 0.00 | 0.00 | 0.51 | 95 | 1009.2 |
| 20260506213740 | 8 | 313 | 0.0 | 1.6 | 0.00 | 0.00 | 0.51 | 95 | 1009.1 |
| 20260506212722 | 8 | 302 | 0.0 | 0.0 | 0.00 | 0.00 | 0.51 | 95 | 1009.0 |
| 20260506211658 | 9 | 309 | 3.2 | 3.2 | 0.00 | 0.00 | 0.51 | 96 | 1008.9 |
| 20260506210641 | 9 | 290 | 0.0 | 1.6 | 0.00 | 0.00 | 0.51 | 95 | 1008.7 |
| 20260506205626 | 9 | 290 | 0.0 | 0.0 | 0.00 | 0.00 | 0.51 | 94 | 1008.9 |
| 20260506204602 | 10 | 302 | 3.2 | 3.2 | 0.00 | 0.00 | 0.51 | 94 | 1008.9 |
| 20260506203553 | 10 | 296 | 1.6 | 1.6 | 0.00 | 0.00 | 0.51 | 93 | 1008.9 |
| 20260506202540 | 10 | 303 | 3.2 | 3.2 | 0.00 | 0.00 | 0.51 | 91 | 1008.5 |
| 20260506201522 | 10 | 302 | 3.2 | 3.2 | 0.00 | 0.00 | 0.51 | 91 | 1008.4 |
| 20260506200458 | 10 | 301 | 0.0 | 1.6 | 0.00 | 0.00 | 0.51 | 90 | 1008.1 |
| 20260506195440 | 10 | 294 | 3.2 | 4.8 | 0.00 | 0.00 | 0.51 | 90 | 1008.0 |
| 20260506194426 | 11 | 300 | 3.2 | 3.2 | 0.00 | 0.00 | 0.51 | 89 | 1007.7 |
| 20260506193402 | 11 | 299 | 0.0 | 1.6 | 0.00 | 0.00 | 0.51 | 88 | 1007.6 |
| 20260506192338 | 11 | 301 | 3.2 | 3.2 | 0.00 | 0.00 | 0.51 | 87 | 1007.3 |
| 20260506191314 | 11 | 297 | 4.8 | 4.8 | 0.00 | 0.00 | 0.51 | 86 | 1007.2 |
| 20260506190250 | 12 | 289 | 6.4 | 6.4 | 0.00 | 0.00 | 0.51 | 86 | 1007.0 |
| 20260506185240 | 11 | 298 | 3.2 | 4.8 | 0.00 | 0.00 | 0.51 | 85 | 1006.8 |
| 20260506184218 | 11 | 289 | 1.6 | 3.2 | 0.00 | 0.00 | 0.51 | 82 | 1006.3 |
| 20260506183154 | 11 | 309 | 4.8 | 4.8 | 0.00 | 0.00 | 0.51 | 79 | 1006.3 |
| 20260506182141 | 12 | 312 | 6.4 | 6.4 | 0.00 | 0.00 | 0.51 | 74 | 1006.2 |
| 20260506181122 | 12 | 308 | 3.2 | 4.8 | 0.00 | 0.00 | 0.51 | 74 | 1005.9 |
| 20260506180059 | 15 | 312 | 1.6 | 3.2 | 0.00 | 0.00 | 0.51 | 70 | 1005.5 |
| 20260506175040 | 15 | 304 | 0.0 | 0.0 | 0.00 | 0.00 | 0.51 | 70 | 1005.4 |
| 20260506174026 | 16 | 285 | 1.6 | 3.2 | 0.00 | 0.00 | 0.51 | 73 | 1005.5 |
| 20260506173002 | 18 | 310 | 0.0 | 1.6 | 0.00 | 0.00 | 0.51 | 66 | 1005.3 |
| 20260506171938 | 18 | 239 | 0.0 | 0.0 | 0.00 | 0.00 | 0.51 | 65 | 1005.2 |
| 20260506170914 | 18 | 268 | 1.6 | 3.2 | 0.00 | 0.00 | 0.51 | 66 | 1005.1 |
| 20260506165851 | 18 | 204 | 0.0 | 1.6 | 0.00 | 0.00 | 0.51 | 68 | 1004.8 |
| 20260506164840 | 18 | 191 | 1.6 | 3.2 | 0.00 | 0.00 | 0.51 | 66 | 1005.1 |
| 20260506163819 | 18 | 266 | 3.2 | 4.8 | 0.00 | 0.00 | 0.51 | 64 | 1004.9 |
| 20260506162754 | 18 | 252 | 0.0 | 1.6 | 0.00 | 0.00 | 0.51 | 64 | 1005.0 |
| 20260506161740 | 19 | 268 | 6.4 | 6.4 | 0.00 | 0.00 | 0.51 | 61 | 1004.9 |
| 20260506160722 | 19 | 134 | 1.6 | 1.6 | 0.00 | 0.00 | 0.51 | 62 | 1004.7 |
| 20260506155659 | 20 | 147 | 0.0 | 1.6 | 0.00 | 0.00 | 0.51 | 63 | 1004.6 |
| 20260506154640 | 18 | 246 | 1.6 | 3.2 | 0.00 | 0.00 | 0.51 | 67 | 1004.5 |
| 20260506153626 | 19 | 263 | 8.0 | 9.7 | 0.00 | 0.00 | 0.51 | 63 | 1004.8 |
| 20260506152602 | 20 | 351 | 1.6 | 3.2 | 0.00 | 0.00 | 0.51 | 50 | 1004.7 |
| 20260506151538 | 20 | 133 | 6.4 | 8.0 | 0.00 | 0.00 | 0.51 | 33 | 1004.9 |
| 20260506150514 | 19 | 46 | 3.2 | 6.4 | 0.00 | 0.00 | 0.51 | 38 | 1004.7 |
| 20260506145450 | 19 | 9 | 3.2 | 4.8 | 0.00 | 0.00 | 0.51 | 43 | 1004.9 |
| 20260506144440 | 18 | 308 | 4.8 | 4.8 | 0.00 | 0.00 | 0.51 | 54 | 1004.8 |
| 20260506143419 | 17 | 333 | 0.0 | 0.0 | 0.00 | 0.00 | 0.51 | 45 | 1004.8 |
| 20260506142354 | 14 | 310 | 0.0 | 1.6 | 0.00 | 0.00 | 0.51 | 65 | 1004.9 |
| 20260506141340 | 13 | 310 | 1.6 | 3.2 | 0.00 | 0.00 | 0.51 | 77 | 1005.0 |
| 20260506140323 | 16 | 307 | 3.2 | 3.2 | 0.00 | 0.00 | 0.51 | 70 | 1004.9 |
| 20260506135259 | 16 | 325 | 1.6 | 3.2 | 0.00 | 0.00 | 0.51 | 55 | 1005.0 |
| 20260506134239 | 17 | 194 | 1.6 | 3.2 | 0.00 | 0.00 | 0.51 | 38 | 1005.0 |
| 20260506133227 | 17 | 42 | 6.4 | 8.0 | 0.00 | 0.00 | 0.51 | 41 | 1005.0 |
| 20260506132203 | 17 | 22 | 3.2 | 6.4 | 0.00 | 0.00 | 0.51 | 44 | 1005.1 |
| 20260506131140 | 17 | 99 | 9.7 | 14.5 | 0.00 | 0.00 | 0.51 | 42 | 1005.3 |
| 20260506130130 | 17 | 21 | 9.7 | 12.9 | 0.00 | 0.00 | 0.51 | 40 | 1005.3 |
| 20260506125106 | 17 | 123 | 8.0 | 14.5 | 0.00 | 0.00 | 0.51 | 41 | 1005.2 |
| 20260506124059 | 17 | 35 | 3.2 | 6.4 | 0.00 | 0.00 | 0.51 | 43 | 1005.2 |
| 20260506123035 | 17 | 27 | 1.6 | 3.2 | 0.00 | 0.00 | 0.51 | 44 | 1005.0 |